Manchester, NH

11:51 AM EDT on July 21, 2017 (GMT -0400)
Manchester

Weather History for KMHT - July, 2013

Change the Weather History Date:

Wednesday, July 17, 2013

  Actual Average Record
Temperature  
Mean Temperature 84 °F 73 °F  
Max Temperature 95 °F 83 °F 98 °F (1968)
Min Temperature 73 °F 63 °F 46 °F (1954)
Degree Days  
Heating Degree Days 0 0  
Month to date heating degree days 0  
Since 1 June heating degree days 58  
Since 1 July heating degree days 0  
Cooling Degree Days 19 8  
Month to date cooling degree days 128  
Year to date cooling degree days 278  
Since 1 June cooling degree days 248  
Growing Degree Days 34 (Base 50)    
Moisture  
Dew Point 69 °F    
Average Humidity 63    
Maximum Humidity 87    
Minimum Humidity 41    
Precipitation  
Precipitation 0.00 in 0.12 in 1.70 in (1970)
Month to date precipitation 1.97  
Year to date precipitation 23.80  
Snow  
Snow 0.00 in - - ()
Month to date snowfall  
Since 1 July snowfall  
Snow Depth -    
Sea Level Pressure  
Sea Level Pressure 30.11 in    
Wind  
Wind Speed 3 mph (West)    
Max Wind Speed 10 mph    
Max Gust Speed -    
Visibility 10 miles    
Events      
T = Trace of Precipitation, MM = Missing Value Source: NWS Daily Summary

Daily Weather History Graph

Daily Weather History Graph

Search for Another Location

Airport or City:

Trip Planner

Search our weather history database for the weather conditions in past years. The results will help you decide how hot, cold, wet, or windy it might be!

Date:

Astronomy

Jul. 17, 2013 Rise Set
Actual Time 5:22 AM EDT 8:21 PM EDT
Civil Twilight 4:48 AM EDT 8:54 PM EDT
Nautical Twilight 4:05 AM EDT 9:37 PM EDT
Astronomical Twilight 3:14 AM EDT 10:28 PM EDT
Moon 3:04 PM EDT (7/17) 12:30 AM EDT (7/17)
Length of Visible Light 16h 06m
Length of Day
14h 58m
Waxing Gibbous, 67% of the Moon is Illuminated
Jul 17
Waxing Gibbous
Jul 22
Full
Jul 29
Last Quarter
Aug 6
New
Aug 14
First Quarter

Hourly Weather History & Observations

Time (EDT) Temp. Heat Index Dew Point Humidity Pressure Visibility Wind Dir Wind Speed Gust Speed Precip Events Conditions
12:53 AM 78.1 °F - 69.1 °F 74% 30.17 in 10.0 mi Calm Calm - N/A   Clear
1:53 AM 75.0 °F - 69.1 °F 82% 30.17 in 10.0 mi Calm Calm - N/A   Clear
2:53 AM 75.0 °F - 71.1 °F 87% 30.16 in 10.0 mi Calm Calm - N/A   Clear
3:53 AM 75.0 °F - 69.1 °F 82% 30.16 in 10.0 mi NNW 4.6 mph - N/A   Clear
4:53 AM 73.9 °F - 68.0 °F 82% 30.17 in 10.0 mi NNW 3.5 mph - N/A   Clear
5:53 AM 73.0 °F - 68.0 °F 84% 30.19 in 10.0 mi North 3.5 mph - N/A   Clear
6:53 AM 75.0 °F - 66.9 °F 76% 30.19 in 10.0 mi NNW 4.6 mph - N/A   Clear
7:53 AM 77.0 °F - 68.0 °F 74% 30.19 in 10.0 mi Calm Calm - N/A   Clear
8:53 AM 81.0 °F 83.8 °F 68.0 °F 65% 30.19 in 10.0 mi Calm Calm - N/A   Clear
9:53 AM 84.9 °F 88.8 °F 69.1 °F 59% 30.18 in 10.0 mi Calm Calm - N/A   Clear
10:53 AM 86.0 °F 90.1 °F 69.1 °F 57% 30.17 in 10.0 mi Calm Calm - N/A   Clear
11:53 AM 89.1 °F 93.7 °F 69.1 °F 52% 30.15 in 10.0 mi SSW 5.8 mph - N/A   Partly Cloudy
12:53 PM 90.0 °F 92.8 °F 66.9 °F 46% 30.14 in 10.0 mi West 10.4 mph - N/A   Partly Cloudy
1:53 PM 91.4 °F 94.5 °F 66.6 °F 44% 30.12 in 10.0 mi WNW 5.8 mph - N/A   Partly Cloudy
2:53 PM 93.2 °F 97.7 °F 68.0 °F 44% 30.09 in 10.0 mi SW 8.1 mph - N/A   Partly Cloudy
3:53 PM 93.2 °F 97.7 °F 68.0 °F 44% 30.05 in 10.0 mi West 6.9 mph - N/A   Partly Cloudy
4:53 PM 95.0 °F 99.5 °F 68.0 °F 41% 30.04 in 10.0 mi WSW 9.2 mph - N/A   Partly Cloudy
5:53 PM 93.2 °F 98.8 °F 69.8 °F 46% 30.02 in 10.0 mi WSW 10.4 mph - N/A   Partly Cloudy
6:53 PM 91.4 °F 98.4 °F 71.6 °F 52% 30.00 in 10.0 mi West 10.4 mph - N/A   Partly Cloudy
7:53 PM 87.8 °F 95.6 °F 73.4 °F 62% 30.02 in 10.0 mi SW 9.2 mph - N/A   Partly Cloudy
8:53 PM 86.0 °F 91.8 °F 71.6 °F 62% 30.01 in 10.0 mi SW 10.4 mph - N/A   Clear
9:53 PM 84.2 °F 89.6 °F 71.6 °F 66% 30.03 in 10.0 mi SW 5.8 mph - N/A   Scattered Clouds
10:53 PM 84.2 °F 89.6 °F 71.6 °F 66% 30.01 in 10.0 mi SSW 6.9 mph - N/A   Mostly Cloudy
11:53 PM 82.4 °F 86.3 °F 69.8 °F 66% 30.00 in 10.0 mi SW 8.1 mph - N/A   Mostly Cloudy